Showing default

OPS 9326 (IDSCS 13), 2653

Orbit data source: Space-Track

OPS 9326 (IDSCS 13), 2653 is a payload satellite owned by USAF SSD (US) in GEO that was launched on Wed, 18 Jan 1967 UTC via a TITAN IIIC launch vehicle from the Air Force Eastern Test Range (AFETR). Payload-class satellites include a variety of spacecraft equipped with specific instruments for various scientific and technological missions. These include communications satellites like Starlink; space stations such as the ISS; scientific satellites like the Hubble; Earth observation satellites from companies like Planet Labs, Umbra, and HawkEye 360; GPS; miniature CubeSats for education and research; and military/defense satellites.

Loading next visibility...
Identifier
2653, 1967-003F
Orbit
GEO
Country
Flag of USUS
Related business
Manufacturer
Philco-Ford WDL
Mission
Non-operational spacecraft
Bus & Motor
IDCSP, Unknown motor
Mass
45 kg wet, 45 kg dry
Launch date (UTC)
1967-01-18 (59 years ago)
Launch vehicle
TITAN IIIC
Launch site
Air Force Eastern Test Range (AFETR)
Object type
Payload
Rocket body
Debris
Shape & HBR
Unknown
Radar Cross Section
Medium (>0.1 m² and <1 m²)

Expand to show TLE details & history
Last TLE update: 16 hours ago

TLE from 16 hours ago
0 OPS 9326 (IDSCS 13)
1 02653U 67003F   25295.53072903 -.00000056  00000-0  00000-0 0  9996
2 02653   7.7300  48.4061 0044850  59.3927 301.0012  1.07748920130137
Epoch: 2025-10-22T12:44Z
TLE epoch observation values (Epoch: 2025-10-22T12:44:14.988Z)
Latitude
0.00001°
Longitude
-173.93323°
Altitude
33,720.114 km
Speed
3.157 km/s
True Right ascension
03h 13m 19s
True Declination
0° 00' 00"
Sunlit
Object was in daylight at epoch
Visualization orbit readout
Latitude
Unknown
Longitude
Unknown
Altitude
Unknown
Speed
Unknown
Apparent Right ascension
Unknown
Apparent Declination
Unknown
Sunlit
N/A
Visualization observer readout
Local Sidereal Time
00:03:55
Azimuth
Unknown
Elevation
Unknown
Doppler factor
Unknown
Orbital elements
Apogee altitude
33,994.006 km
Perigee altitude
33,633.485 km
Semi-major axis
40,191.882 km
Eccentricity
0.00449
Inclination
7.73°
RAAN
48.4061°
Arg. of periapsis
59.3927°
True anomaly
300.5594°
Mean anomaly
301.0012°
Eccentric anomaly
300.78043°
Mean motion
0.26936 °/min
Orbital period
1,336.49 mins
BSTAR
0
Loading maneuver chart data...
Computing Atmospheric mass density...
Loading historical data...
Loading historical data...
Loading historical data...
Loading historical data...
Loading historical data...
Loading historical data...
Loading historical data...

Documentation

Showing up to 5 results
|